N14AD KFTY-KBNA

Flight info

Callsign N14AD
Flight time 0h 45m
Altitude 32000
Route NOONE JAGIR SWFFT2
Aircraft C25C/M-SDE2E3FGHRWXY/LB1

Departure

Time 2026-05-08 01:04
Airport Fulton County Airport Brown Field (KFTY)

Arrival

Time 2026-05-08 01:49
Airport Nashville International Airport (KBNA)
Time Latitude Longitude Altitude Speed Heading
2026-05-08 00:53 33.77757 -84.52281 813 ft 0 kts 300°
2026-05-08 00:58 33.77757 -84.52282 814 ft 2 kts 300°
2026-05-08 00:58 33.77770 -84.52318 813 ft 6 kts 292°
2026-05-08 00:58 33.77759 -84.52370 813 ft 6 kts 188°
2026-05-08 00:59 33.77719 -84.52377 813 ft 5 kts 188°
2026-05-08 00:59 33.77672 -84.52369 814 ft 9 kts 144°
2026-05-08 00:59 33.77639 -84.52358 815 ft 2 kts 214°
2026-05-08 00:59 33.77638 -84.52359 815 ft 0 kts 222°
2026-05-08 01:01 33.77624 -84.52378 815 ft 2 kts 257°
2026-05-08 01:01 33.77663 -84.52435 814 ft 15 kts 318°
2026-05-08 01:01 33.77769 -84.52547 811 ft 25 kts 319°
2026-05-08 01:02 33.77814 -84.52645 808 ft 14 kts 257°
2026-05-08 01:02 33.77799 -84.52746 807 ft 22 kts 262°
2026-05-08 01:02 33.77785 -84.52936 803 ft 15 kts 300°
2026-05-08 01:02 33.77801 -84.52962 802 ft 0 kts 310°
2026-05-08 01:03 33.77819 -84.52983 801 ft 12 kts 322°
2026-05-08 01:03 33.77880 -84.52954 801 ft 6 kts 90°
2026-05-08 01:03 33.77889 -84.52895 804 ft 29 kts 81°
2026-05-08 01:03 33.77994 -84.52211 814 ft 132 kts 80°
2026-05-08 01:04 33.78198 -84.50787 1060 ft 203 kts 79°
2026-05-08 01:04 33.78435 -84.49190 2038 ft 187 kts 77°
2026-05-08 01:04 33.78621 -84.47617 2856 ft 197 kts 78°
2026-05-08 01:04 33.78830 -84.45821 3040 ft 240 kts 78°
2026-05-08 01:05 33.79080 -84.43742 3035 ft 255 kts 78°
2026-05-08 01:05 33.79338 -84.41633 3027 ft 256 kts 78°
2026-05-08 01:05 33.79593 -84.39500 3026 ft 258 kts 78°
2026-05-08 01:05 33.79847 -84.37357 3026 ft 260 kts 78°
2026-05-08 01:06 33.80110 -84.35205 3032 ft 260 kts 78°
2026-05-08 01:06 33.80371 -84.33050 3027 ft 261 kts 78°
2026-05-08 01:06 33.80639 -84.30883 3028 ft 262 kts 78°
2026-05-08 01:06 33.80902 -84.28715 3022 ft 262 kts 79°
2026-05-08 01:07 33.81172 -84.26545 3023 ft 262 kts 78°
2026-05-08 01:07 33.81450 -84.24380 3011 ft 262 kts 78°
2026-05-08 01:07 33.81730 -84.22218 3015 ft 262 kts 78°
2026-05-08 01:07 33.82008 -84.20059 3016 ft 262 kts 78°
2026-05-08 01:08 33.82460 -84.17960 3023 ft 257 kts 57°
2026-05-08 01:08 33.83802 -84.16616 3560 ft 251 kts 14°
2026-05-08 01:08 33.85476 -84.16504 4764 ft 245 kts 349°
2026-05-08 01:08 33.87194 -84.16775 5692 ft 251 kts 346°
2026-05-08 01:09 33.88950 -84.17093 6605 ft 257 kts 345°
2026-05-08 01:09 33.90732 -84.17403 7527 ft 260 kts 344°
2026-05-08 01:09 33.92534 -84.17699 8484 ft 262 kts 343°
2026-05-08 01:09 33.94238 -84.18314 9419 ft 253 kts 328°
2026-05-08 01:10 33.95895 -84.19248 10024 ft 273 kts 326°
2026-05-08 01:10 33.97651 -84.20312 10490 ft 291 kts 325°
2026-05-08 01:10 33.99480 -84.21457 11028 ft 304 kts 324°
2026-05-08 01:10 34.01408 -84.22687 11319 ft 321 kts 324°
2026-05-08 01:11 34.03394 -84.23966 11933 ft 325 kts 324°
2026-05-08 01:11 34.05403 -84.25252 12614 ft 328 kts 324°
2026-05-08 01:11 34.07432 -84.26540 13324 ft 331 kts 324°
2026-05-08 01:11 34.09480 -84.27827 13944 ft 336 kts 324°
2026-05-08 01:12 34.11593 -84.29149 14003 ft 334 kts 324°
2026-05-08 01:12 34.13660 -84.30429 14005 ft 332 kts 324°
2026-05-08 01:12 34.15717 -84.31702 14106 ft 333 kts 324°
2026-05-08 01:12 34.17774 -84.32975 14811 ft 335 kts 324°
2026-05-08 01:13 34.19863 -84.34258 15460 ft 338 kts 324°
2026-05-08 01:13 34.21970 -84.35544 16067 ft 341 kts 324°
2026-05-08 01:13 34.24104 -84.36833 16663 ft 344 kts 324°
2026-05-08 01:13 34.26259 -84.38122 17301 ft 347 kts 324°
2026-05-08 01:14 34.28435 -84.39409 18311 ft 351 kts 324°
2026-05-08 01:14 34.30648 -84.40706 19112 ft 356 kts 324°
2026-05-08 01:14 34.32894 -84.42004 19922 ft 359 kts 324°
2026-05-08 01:14 34.35151 -84.43287 20900 ft 358 kts 324°
2026-05-08 01:15 34.37409 -84.44540 21936 ft 356 kts 324°
2026-05-08 01:15 34.39664 -84.45758 22977 ft 354 kts 324°
2026-05-08 01:15 34.41892 -84.46996 23897 ft 347 kts 319°
2026-05-08 01:15 34.43626 -84.48929 23984 ft 338 kts 294°
2026-05-08 01:16 34.44259 -84.51625 24297 ft 336 kts 271°
2026-05-08 01:16 34.44458 -84.54449 24973 ft 339 kts 280°
2026-05-08 01:16 34.45295 -84.57123 25757 ft 342 kts 290°
2026-05-08 01:16 34.46437 -84.59635 26546 ft 342 kts 293°
2026-05-08 01:17 34.47663 -84.62103 27364 ft 338 kts 293°
2026-05-08 01:17 34.48854 -84.64536 28177 ft 334 kts 292°
2026-05-08 01:17 34.50011 -84.66949 29034 ft 328 kts 291°
2026-05-08 01:17 34.51093 -84.69359 29880 ft 323 kts 290°
2026-05-08 01:18 34.52118 -84.71737 30597 ft 318 kts 289°
2026-05-08 01:18 34.53123 -84.74118 31210 ft 316 kts 289°
2026-05-08 01:18 34.54148 -84.76480 31792 ft 316 kts 290°
2026-05-08 01:18 34.55210 -84.78840 32023 ft 325 kts 290°
2026-05-08 01:19 34.56277 -84.81258 32027 ft 337 kts 290°
2026-05-08 01:19 34.57451 -84.83977 32032 ft 350 kts 290°
2026-05-08 01:19 34.58648 -84.86655 32039 ft 358 kts 291°
2026-05-08 01:20 34.60942 -84.91906 32043 ft 356 kts 290°
2026-05-08 01:20 34.63240 -84.97098 32037 ft 355 kts 290°
2026-05-08 01:21 34.65839 -85.01932 32045 ft 381 kts 309°
2026-05-08 01:21 34.68211 -85.03486 32037 ft 404 kts 321°
2026-05-08 01:21 34.70498 -85.05029 32041 ft 389 kts 314°
2026-05-08 01:22 34.74522 -85.08415 32037 ft 384 kts 311°
2026-05-08 01:22 34.78661 -85.11789 32033 ft 390 kts 315°
2026-05-08 01:23 34.82882 -85.14918 32032 ft 389 kts 314°
2026-05-08 01:23 34.87221 -85.18295 32032 ft 386 kts 313°
2026-05-08 01:24 34.91542 -85.21711 32044 ft 385 kts 313°
2026-05-08 01:24 34.93648 -85.23374 31878 ft 389 kts 313°
2026-05-08 01:24 34.95767 -85.24994 31371 ft 395 kts 314°
2026-05-08 01:24 34.97889 -85.26615 30860 ft 391 kts 314°
2026-05-08 01:25 35.00122 -85.28347 30345 ft 381 kts 313°
2026-05-08 01:25 35.01539 -85.29452 30009 ft 374 kts 313°
2026-05-08 01:25 35.04215 -85.31551 29314 ft 363 kts 313°
2026-05-08 01:25 35.06280 -85.33178 28821 ft 354 kts 313°
2026-05-08 01:26 35.08202 -85.34694 28389 ft 347 kts 313°
2026-05-08 01:26 35.09531 -85.35741 28084 ft 343 kts 313°
2026-05-08 01:26 35.11439 -85.37244 27648 ft 349 kts 314°
2026-05-08 01:26 35.13397 -85.38741 27237 ft 354 kts 315°
2026-05-08 01:27 35.15400 -85.40309 26812 ft 357 kts 314°
2026-05-08 01:27 35.17345 -85.42217 26338 ft 350 kts 306°
2026-05-08 01:27 35.18964 -85.44280 25901 ft 350 kts 303°
2026-05-08 01:27 35.20542 -85.46466 25483 ft 353 kts 302°
2026-05-08 01:28 35.22039 -85.48577 25042 ft 358 kts 303°
2026-05-08 01:28 35.23751 -85.50833 24573 ft 365 kts 306°
2026-05-08 01:28 35.25369 -85.52856 24099 ft 369 kts 307°
2026-05-08 01:28 35.27197 -85.55089 23641 ft 373 kts 308°
2026-05-08 01:29 35.28959 -85.57291 23103 ft 374 kts 307°
2026-05-08 01:29 35.30689 -85.59516 22612 ft 367 kts 307°
2026-05-08 01:29 35.32401 -85.61737 22117 ft 362 kts 307°
2026-05-08 01:29 35.34057 -85.63890 21645 ft 357 kts 307°
2026-05-08 01:30 35.35782 -85.66058 21174 ft 352 kts 307°
2026-05-08 01:30 35.37455 -85.68190 20720 ft 348 kts 307°
2026-05-08 01:30 35.39109 -85.70332 20262 ft 344 kts 307°
2026-05-08 01:30 35.40743 -85.72457 19809 ft 341 kts 307°
2026-05-08 01:31 35.42382 -85.74521 19367 ft 339 kts 308°
2026-05-08 01:31 35.43977 -85.76560 18957 ft 336 kts 307°
2026-05-08 01:31 35.45606 -85.78676 18523 ft 334 kts 307°
2026-05-08 01:31 35.47197 -85.80747 18062 ft 333 kts 308°
2026-05-08 01:32 35.48812 -85.82782 17606 ft 332 kts 308°
2026-05-08 01:32 35.50400 -85.84825 17155 ft 330 kts 308°
2026-05-08 01:32 35.51953 -85.86850 16720 ft 329 kts 308°
2026-05-08 01:32 35.53489 -85.88846 16283 ft 328 kts 308°
2026-05-08 01:33 35.55081 -85.90848 15847 ft 327 kts 309°
2026-05-08 01:33 35.56638 -85.92879 15415 ft 326 kts 308°
2026-05-08 01:33 35.58189 -85.94964 14984 ft 325 kts 307°
2026-05-08 01:33 35.59684 -85.96999 14565 ft 324 kts 307°
2026-05-08 01:34 35.61152 -85.99008 14149 ft 324 kts 308°
2026-05-08 01:34 35.62667 -86.01028 13724 ft 324 kts 309°
2026-05-08 01:34 35.64206 -86.03056 13257 ft 324 kts 309°
2026-05-08 01:34 35.65725 -86.05099 12791 ft 324 kts 309°
2026-05-08 01:35 35.67175 -86.07057 12362 ft 324 kts 309°
2026-05-08 01:35 35.68660 -86.09075 11942 ft 324 kts 309°
2026-05-08 01:35 35.70116 -86.10998 11548 ft 324 kts 310°
2026-05-08 01:35 35.71693 -86.13077 11098 ft 325 kts 310°
2026-05-08 01:36 35.73206 -86.15117 10672 ft 325 kts 310°
2026-05-08 01:36 35.74448 -86.17271 10279 ft 324 kts 293°
2026-05-08 01:36 35.75208 -86.19929 9858 ft 316 kts 287°
2026-05-08 01:36 35.75455 -86.22395 9510 ft 311 kts 270°
2026-05-08 01:37 35.75315 -86.24939 9067 ft 305 kts 267°
2026-05-08 01:37 35.75108 -86.27542 8554 ft 304 kts 266°
2026-05-08 01:37 35.74881 -86.30119 8047 ft 302 kts 265°
2026-05-08 01:37 35.74658 -86.32564 7570 ft 302 kts 265°
2026-05-08 01:38 35.74432 -86.35057 7087 ft 294 kts 265°
2026-05-08 01:38 35.74221 -86.37456 6607 ft 281 kts 265°
2026-05-08 01:38 35.74036 -86.39614 6094 ft 255 kts 265°
2026-05-08 01:38 35.73857 -86.41746 5579 ft 253 kts 265°
2026-05-08 01:39 35.73683 -86.43853 5079 ft 251 kts 266°
2026-05-08 01:39 35.73762 -86.45912 4574 ft 248 kts 289°
2026-05-08 01:39 35.74729 -86.47569 4063 ft 244 kts 320°
2026-05-08 01:39 35.75978 -86.48803 3593 ft 243 kts 323°
2026-05-08 01:40 35.77316 -86.50039 3111 ft 241 kts 324°
2026-05-08 01:40 35.78620 -86.51209 2987 ft 237 kts 325°
2026-05-08 01:40 35.79872 -86.52319 2990 ft 221 kts 325°
2026-05-08 01:40 35.81127 -86.53425 2980 ft 207 kts 325°
2026-05-08 01:41 35.82225 -86.54389 2992 ft 217 kts 326°
2026-05-08 01:41 35.83515 -86.55516 2992 ft 232 kts 326°
2026-05-08 01:41 35.84877 -86.56700 3000 ft 245 kts 325°
2026-05-08 01:41 35.85922 -86.58205 3022 ft 235 kts 294°
2026-05-08 01:42 35.86402 -86.60028 3021 ft 223 kts 288°
2026-05-08 01:42 35.86807 -86.61788 3022 ft 201 kts 287°
2026-05-08 01:42 35.87135 -86.63310 3019 ft 181 kts 287°
2026-05-08 01:42 35.87418 -86.64721 2988 ft 170 kts 286°
2026-05-08 01:43 35.87702 -86.66149 3007 ft 174 kts 286°
2026-05-08 01:43 35.87996 -86.67614 3015 ft 183 kts 286°
2026-05-08 01:43 35.88305 -86.69155 3008 ft 187 kts 286°
2026-05-08 01:43 35.88910 -86.70467 2990 ft 182 kts 326°
2026-05-08 01:44 35.90097 -86.70879 3017 ft 179 kts 354°
2026-05-08 01:44 35.91322 -86.71000 3010 ft 178 kts 357°
2026-05-08 01:44 35.92556 -86.71068 3013 ft 177 kts 358°
2026-05-08 01:44 35.93757 -86.71117 3019 ft 178 kts 358°
2026-05-08 01:45 35.94983 -86.71159 3021 ft 178 kts 358°
2026-05-08 01:45 35.96221 -86.71197 3017 ft 178 kts 358°
2026-05-08 01:45 35.97406 -86.71249 3014 ft 178 kts 357°
2026-05-08 01:45 35.98651 -86.71355 3000 ft 178 kts 360°
2026-05-08 01:46 35.99881 -86.71155 2871 ft 185 kts
2026-05-08 01:46 36.01198 -86.70852 2688 ft 193 kts 13°
2026-05-08 01:46 36.02507 -86.70371 2456 ft 202 kts 18°
2026-05-08 01:46 36.03811 -86.69782 2199 ft 204 kts 19°
2026-05-08 01:47 36.04995 -86.69260 1947 ft 162 kts 18°
2026-05-08 01:47 36.05985 -86.68871 1725 ft 146 kts 15°
2026-05-08 01:47 36.06940 -86.68513 1525 ft 139 kts 17°
2026-05-08 01:48 36.08665 -86.67800 1172 ft 134 kts 17°
2026-05-08 01:48 36.09546 -86.67457 992 ft 127 kts 15°
2026-05-08 01:48 36.10308 -86.67157 837 ft 113 kts 17°
2026-05-08 01:48 36.11004 -86.66863 688 ft 100 kts 16°
2026-05-08 01:49 36.11628 -86.66626 591 ft 85 kts 15°
2026-05-08 01:49 36.12006 -86.66468 575 ft 38 kts 12°